Regional Weather Roundup
Issued by NWS Bismarck, ND

Home | Current Version | Previous Version | Text Only | Print | Product List | Glossary On
Versions: 1 2 3 4 5 6 7 8 9 10 11 12 13 14 15 16 17 18 19 20 21 22 23 24 25 26 27 28 29 30 31 32 33 34 35 36 37 38 39 40 41 42 43 44 45 46 47 48 49 50
000
ASUS43 KBIS 280002
RWRBIS

NWR BROADCAST TEXT
NATIONAL WEATHER SERVICE BISMARCK ND
700 PM CDT THU APR 27 2017

NOTE: "FAIR" INDICATES FEW OR NO CLOUDS BELOW 12,000 FEET WITH NO
SIGNIFICANT WEATHER AND/OR OBSTRUCTIONS TO VISIBILITY.


CITY           SKY/WX    TMP DP  RH WIND       PRES   REMARKS
WILLISTON      FAIR      53  15  22 E12       29.76R
MINOT          FAIR      52  21  29 N14       29.75R
MINOT AFB      FAIR      50  19  29 N10       29.75R
BISMARCK       FAIR      53  26  35 NE9       29.73R
DICKINSON      FAIR      49  20  31 NE10      29.70R
GARRISON         N/A     50  17  27 NE8       29.74R
HETTINGER ARPT FAIR      50  26  39 E10       29.70R
JAMESTOWN      PTSUNNY   48  31  51 N14       29.69R
HAZEN          FAIR      52  19  28 N10       29.76R
LINTON         FAIR      52  28  40 N9        29.73R
MANDAN         FAIR      50  25  37 NE9G15    29.73R
STANLEY        FAIR      48  10  21 NE10      29.78R
TIOGA          FAIR      48   9  20 E12       29.77R
WATFORD CITY   FAIR      50  14  23 E9G15     29.74S
$$

CITY           SKY/WX    TMP DP  RH WIND       PRES   REMARKS
GRAND FORKS    CLOUDY    43  33  68 NE12      29.69R
GRAND FORKS AF CLOUDY    43  31  62 NE15      29.69R
DEVILS LAKE    PTSUNNY   46  27  47 N21       29.73R
FARGO          CLOUDY    41  30  65 NE5       29.69R
CAVALIER       MOCLDY    43  28  56 N17G28    29.71R
GRAFTON        CLOUDY    43  32  65 N18       29.71R
GWINNER        CLOUDY    43  34  70 MISG      29.70R
LANGDON        CLOUDY    43  27  52 N21G30    29.72S
ROLLA          FAIR      45  27  49 NE15G26   29.76R
$$

CITY           SKY/WX    TMP DP  RH WIND       PRES   REMARKS
ABERDEEN       FAIR      50  27  40 N15       29.71R
MOBRIDGE       FAIR      55  24  30 N12       29.67R
BUFFALO          N/A     48  27  44 E12       29.62R
RAPID CITY     CLOUDY    45  32  60 E9        29.65R
GLASGOW        PTSUNNY   53  20  27 E12       29.71R
SIDNEY         FAIR      53  18  25 E13       29.73R
WOLF POINT     CLOUDY    56  20  24 E15       29.72R
GLENDIVE       FAIR      52  23  32 E13       29.71R
MILES CITY     CLOUDY    53  28  38 E10       29.67R
BAKER          FAIR      50  24  36 SE10      29.69R
$$

CITY           SKY/WX    TMP DP  RH WIND       PRES   REMARKS
BILLINGS       LGT RAIN  43  39  86 N10       29.69R
GREAT FALLS    CLOUDY    42  35  76 N12       29.78R
$$




USA.gov is the U.S. government's official web portal to all federal, state and local government web resources and services.